Powrót do katalogu

STARLINK-6047

AktywnyŁącznośćVLEO
NORAD 56460·PAYLOAD·🇺🇸 United States

Wystrzelony May 10, 2023 z Vandenberg Space Force Base

Loading…

Następne Przeloty (najbliższe 24 godziny)

TLE

ŚwieżeSource: CelesTrak SupGP

Epoka: Sep 14, 2026, 22:34 UTC

1 56460C 23064N   26257.94076389 -.00042389  00000+0 -35528-2 0  2573
2 56460  70.0029  27.2302 0003004 276.3820 148.4968 14.98346851    12

Śledź STARLINK-6047 w czasie rzeczywistym z AllMySat

Download on the App Store